Time,TemperatureF,DewpointF,PressureIn,WindDirection,WindDirectionDegrees,WindSpeedMPH,WindSpeedGustMPH,Humidity,HourlyPrecipIn,Conditions,Clouds,dailyrainin,SoftwareType,DateUTC
2013-03-01 00:01:00,31.0,15.0,30.17,NW,311,2.0,5.0,52,0.00,,,0.01,,2013-03-01 07:01:00,
2013-03-01 00:11:00,31.0,15.0,30.17,NW,311,2.0,5.0,52,0.00,,,0.01,,2013-03-01 07:11:00,
2013-03-01 00:21:00,32.0,14.0,30.13,NW,310,2.0,6.0,47,0.00,,,0.01,,2013-03-01 07:21:00,
2013-03-01 00:31:00,32.0,14.0,30.13,WNW,299,3.0,6.0,46,0.00,,,0.01,,2013-03-01 07:31:00,
2013-03-01 00:41:00,32.0,14.0,30.13,WNW,299,3.0,6.0,46,0.00,,,0.01,,2013-03-01 07:41:00,
2013-03-01 00:52:00,33.0,15.0,30.13,WNW,291,3.0,6.0,46,0.00,,,0.01,,2013-03-01 07:52:00,
2013-03-01 01:01:00,33.0,15.0,30.13,NW,313,5.0,8.0,46,0.00,,,0.01,,2013-03-01 08:01:00,
2013-03-01 01:11:00,33.0,15.0,30.13,NW,313,5.0,8.0,46,0.00,,,0.01,,2013-03-01 08:11:00,
2013-03-01 01:21:00,32.0,15.0,30.15,NW,311,5.0,8.0,50,0.00,,,0.01,,2013-03-01 08:21:00,
2013-03-01 01:31:00,33.0,18.0,30.14,WNW,282,4.0,7.0,53,0.00,,,0.01,,2013-03-01 08:31:00,
2013-03-01 01:42:00,33.0,18.0,30.14,WNW,282,4.0,7.0,53,0.00,,,0.01,,2013-03-01 08:42:00,
2013-03-01 01:53:00,33.0,18.0,30.14,WNW,285,3.0,6.0,54,0.00,,,0.01,,2013-03-01 08:53:00,
2013-03-01 02:01:00,33.0,19.0,30.14,WNW,291,3.0,14.0,57,0.00,,,0.01,,2013-03-01 09:01:00,
2013-03-01 02:11:00,33.0,19.0,30.14,WNW,291,3.0,14.0,57,0.00,,,0.01,,2013-03-01 09:11:00,
2013-03-01 02:21:00,33.0,19.0,30.14,WSW,256,9.0,16.0,57,0.00,,,0.01,,2013-03-01 09:21:00,
2013-03-01 02:31:00,33.0,19.0,30.13,West,280,7.0,13.0,57,0.00,,,0.01,,2013-03-01 09:31:00,
2013-03-01 02:41:00,33.0,19.0,30.13,West,280,7.0,13.0,57,0.00,,,0.01,,2013-03-01 09:41:00,
2013-03-01 02:51:00,33.0,19.0,30.13,West,277,3.0,9.0,56,0.00,,,0.01,,2013-03-01 09:51:00,
2013-03-01 03:01:00,33.0,19.0,30.13,WNW,291,4.0,6.0,57,0.00,,,0.01,,2013-03-01 10:01:00,
2013-03-01 03:11:00,33.0,19.0,30.13,WNW,291,4.0,6.0,57,0.00,,,0.01,,2013-03-01 10:11:00,
2013-03-01 03:21:00,33.0,19.0,30.13,WNW,294,4.0,8.0,57,0.00,,,0.01,,2013-03-01 10:21:00,
2013-03-01 03:31:00,34.0,20.0,30.11,WNW,288,7.0,15.0,57,0.00,,,0.01,,2013-03-01 10:31:00,
2013-03-01 03:41:00,34.0,20.0,30.11,WNW,288,7.0,15.0,57,0.00,,,0.01,,2013-03-01 10:41:00,
2013-03-01 03:52:00,33.0,19.0,30.13,West,266,4.0,13.0,57,0.00,,,0.01,,2013-03-01 10:52:00,
2013-03-01 04:01:00,33.0,19.0,30.13,WNW,298,5.0,10.0,56,0.00,,,0.01,,2013-03-01 11:01:00,
2013-03-01 04:11:00,33.0,19.0,30.13,WNW,298,5.0,10.0,56,0.00,,,0.01,,2013-03-01 11:11:00,
2013-03-01 04:22:00,33.0,19.0,30.14,West,267,4.0,12.0,56,0.00,,,0.01,,2013-03-01 11:22:00,
2013-03-01 04:31:00,33.0,20.0,30.14,WSW,243,1.0,7.0,58,0.00,,,0.01,,2013-03-01 11:31:00,
2013-03-01 04:41:00,33.0,20.0,30.14,WSW,243,1.0,7.0,58,0.00,,,0.01,,2013-03-01 11:41:00,
2013-03-01 04:52:00,33.0,20.0,30.15,ESE,121,2.0,5.0,58,0.00,,,0.01,,2013-03-01 11:52:00,
2013-03-01 05:01:00,33.0,21.0,30.15,NNE,17,0.0,0.0,60,0.00,,,0.01,,2013-03-01 12:01:00,
2013-03-01 05:11:00,33.0,21.0,30.15,NNE,17,0.0,0.0,60,0.00,,,0.01,,2013-03-01 12:11:00,
2013-03-01 05:21:00,33.0,21.0,30.16,NNE,14,2.0,3.0,61,0.00,,,0.01,,2013-03-01 12:21:00,
2013-03-01 05:32:00,33.0,21.0,30.16,North,353,1.0,6.0,61,0.00,,,0.01,,2013-03-01 12:32:00,
2013-03-01 05:41:00,33.0,21.0,30.16,North,353,1.0,6.0,61,0.00,,,0.01,,2013-03-01 12:41:00,
2013-03-01 05:52:00,33.0,21.0,30.17,North,0,1.0,5.0,60,0.00,,,0.01,,2013-03-01 12:52:00,
2013-03-01 06:01:00,33.0,21.0,30.17,NNW,337,0.0,1.0,61,0.00,,,0.01,,2013-03-01 13:01:00,
2013-03-01 06:11:00,33.0,21.0,30.17,WNW,289,2.0,5.0,62,0.00,,,0.01,,2013-03-01 13:11:00,
2013-03-01 06:21:00,33.0,21.0,30.17,WNW,289,2.0,5.0,62,0.00,,,0.01,,2013-03-01 13:21:00,
2013-03-01 06:32:00,33.0,22.0,30.16,WNW,295,1.0,5.0,63,0.00,,,0.01,,2013-03-01 13:32:00,
2013-03-01 06:41:00,33.0,22.0,30.16,WNW,295,1.0,5.0,63,0.00,,,0.01,,2013-03-01 13:41:00,
2013-03-01 06:51:00,33.0,22.0,30.16,WNW,297,4.0,6.0,64,0.00,,,0.01,,2013-03-01 13:51:00,
2013-03-01 07:01:00,32.0,22.0,30.18,WNW,285,2.0,5.0,65,0.00,,,0.01,,2013-03-01 14:01:00,
2013-03-01 07:11:00,32.0,22.0,30.18,WNW,285,2.0,5.0,65,0.00,,,0.01,,2013-03-01 14:11:00,
2013-03-01 07:21:00,33.0,23.0,30.19,NW,313,2.0,8.0,66,0.00,,,0.01,,2013-03-01 14:21:00,
2013-03-01 07:31:00,33.0,23.0,30.20,NW,312,4.0,7.0,67,0.00,,,0.01,,2013-03-01 14:31:00,
2013-03-01 07:41:00,33.0,23.0,30.20,NW,312,4.0,7.0,67,0.00,,,0.01,,2013-03-01 14:41:00,
2013-03-01 07:52:00,33.0,23.0,30.21,NW,326,2.0,7.0,67,0.00,,,0.01,,2013-03-01 14:52:00,
2013-03-01 08:01:00,33.0,23.0,30.21,West,274,3.0,6.0,67,0.00,,,0.01,,2013-03-01 15:01:00,
2013-03-01 08:11:00,33.0,23.0,30.22,NW,316,1.0,3.0,67,0.00,,,0.01,,2013-03-01 15:11:00,
2013-03-01 08:21:00,33.0,23.0,30.22,NW,316,1.0,3.0,67,0.00,,,0.01,,2013-03-01 15:21:00,
2013-03-01 08:31:00,33.0,23.0,30.23,NW,309,2.0,6.0,67,0.00,,,0.01,,2013-03-01 15:31:00,
2013-03-01 08:42:00,33.0,23.0,30.23,NW,309,2.0,6.0,67,0.00,,,0.01,,2013-03-01 15:42:00,
2013-03-01 08:52:00,34.0,24.0,30.21,NNW,333,3.0,7.0,67,0.00,,,0.01,,2013-03-01 15:52:00,
2013-03-01 09:01:00,34.0,25.0,30.22,NNW,335,3.0,7.0,69,0.00,,,0.01,,2013-03-01 16:01:00,
2013-03-01 09:11:00,34.0,25.0,30.22,NNW,335,3.0,7.0,69,0.00,,,0.01,,2013-03-01 16:11:00,
2013-03-01 09:21:00,35.0,26.0,30.22,North,350,4.0,8.0,68,0.00,,,0.01,,2013-03-01 16:21:00,
2013-03-01 09:31:00,36.0,26.0,30.21,NNW,344,1.0,3.0,67,0.00,,,0.01,,2013-03-01 16:31:00,
2013-03-01 09:41:00,36.0,26.0,30.21,NNW,344,1.0,3.0,67,0.00,,,0.01,,2013-03-01 16:41:00,
2013-03-01 09:52:00,36.0,26.0,30.21,NW,318,2.0,5.0,66,0.00,,,0.01,,2013-03-01 16:52:00,
2013-03-01 10:01:00,36.0,25.0,30.21,NW,318,2.0,6.0,65,0.00,,,0.01,,2013-03-01 17:01:00,
2013-03-01 10:11:00,38.0,27.0,30.20,WNW,301,1.0,2.0,63,0.00,,,0.01,,2013-03-01 17:11:00,
2013-03-01 10:21:00,38.0,27.0,30.20,WNW,301,1.0,2.0,63,0.00,,,0.01,,2013-03-01 17:21:00,
2013-03-01 10:31:00,38.0,25.0,30.19,WNW,301,1.0,2.0,60,0.00,,,0.01,,2013-03-01 17:31:00,
2013-03-01 10:41:00,40.0,26.0,30.18,WNW,301,0.0,0.0,58,0.00,,,0.01,,2013-03-01 17:41:00,
2013-03-01 10:52:00,40.0,26.0,30.18,WNW,301,0.0,0.0,58,0.00,,,0.01,,2013-03-01 17:52:00,
2013-03-01 11:01:00,39.0,25.0,30.18,WNW,301,0.0,1.0,56,0.00,,,0.01,,2013-03-01 18:01:00,
2013-03-01 11:11:00,39.0,25.0,30.18,WNW,301,0.0,1.0,56,0.00,,,0.01,,2013-03-01 18:11:00,
2013-03-01 11:21:00,39.0,25.0,30.19,NW,305,1.0,3.0,56,0.00,,,0.01,,2013-03-01 18:21:00,
2013-03-01 11:31:00,39.0,25.0,30.18,NW,322,4.0,7.0,57,0.00,,,0.01,,2013-03-01 18:31:00,
2013-03-01 11:41:00,40.0,25.0,30.16,NW,306,1.0,3.0,55,0.00,,,0.01,,2013-03-01 18:41:00,
2013-03-01 11:52:00,40.0,25.0,30.16,NW,306,1.0,3.0,55,0.00,,,0.01,,2013-03-01 18:52:00,
2013-03-01 12:01:00,40.0,25.0,30.16,NNW,337,2.0,8.0,54,0.00,,,0.01,,2013-03-01 19:01:00,
2013-03-01 12:11:00,40.0,25.0,30.16,NNW,337,2.0,8.0,54,0.00,,,0.01,,2013-03-01 19:11:00,
2013-03-01 12:21:00,40.0,25.0,30.16,NW,315,3.0,7.0,55,0.00,,,0.01,,2013-03-01 19:21:00,
2013-03-01 12:31:00,41.0,26.0,30.15,NW,326,3.0,10.0,54,0.00,,,0.01,,2013-03-01 19:31:00,
2013-03-01 12:41:00,41.0,26.0,30.15,NW,326,3.0,10.0,54,0.00,,,0.01,,2013-03-01 19:41:00,
2013-03-01 12:51:00,41.0,25.0,30.15,NW,312,4.0,10.0,53,0.00,,,0.01,,2013-03-01 19:51:00,
2013-03-01 13:01:00,41.0,25.0,30.14,NNW,336,5.0,8.0,53,0.00,,,0.01,,2013-03-01 20:01:00,
2013-03-01 13:11:00,41.0,25.0,30.14,NNW,336,5.0,8.0,53,0.00,,,0.01,,2013-03-01 20:11:00,
2013-03-01 13:21:00,42.0,26.0,30.13,NW,306,3.0,7.0,53,0.00,,,0.01,,2013-03-01 20:21:00,
2013-03-01 13:31:00,43.0,25.0,30.11,NW,324,3.0,6.0,49,0.00,,,0.01,,2013-03-01 20:31:00,
2013-03-01 13:41:00,43.0,25.0,30.11,NW,324,3.0,6.0,49,0.00,,,0.01,,2013-03-01 20:41:00,
2013-03-01 13:52:00,43.0,26.0,30.10,WNW,283,2.0,7.0,51,0.00,,,0.01,,2013-03-01 20:52:00,
2013-03-01 14:01:00,43.0,25.0,30.09,NW,306,3.0,6.0,49,0.00,,,0.01,,2013-03-01 21:01:00,
2013-03-01 14:11:00,44.0,25.0,30.08,SW,234,5.0,8.0,47,0.00,,,0.01,,2013-03-01 21:11:00,
2013-03-01 14:21:00,44.0,25.0,30.08,SW,234,5.0,8.0,47,0.00,,,0.01,,2013-03-01 21:21:00,
2013-03-01 14:31:00,44.0,26.0,30.08,SW,234,5.0,9.0,49,0.00,,,0.01,,2013-03-01 21:31:00,
2013-03-01 14:41:00,43.0,25.0,30.08,WSW,253,4.0,12.0,49,0.00,,,0.01,,2013-03-01 21:41:00,
2013-03-01 14:52:00,43.0,25.0,30.08,WSW,253,4.0,12.0,49,0.00,,,0.01,,2013-03-01 21:52:00,
2013-03-01 15:01:00,44.0,26.0,30.08,West,273,3.0,12.0,49,0.00,,,0.01,,2013-03-01 22:01:00,
2013-03-01 15:11:00,42.0,25.0,30.10,WSW,254,6.0,12.0,51,0.00,,,0.00,,2013-03-01 22:11:00,
2013-03-01 15:21:00,42.0,25.0,30.10,WSW,254,6.0,12.0,51,0.00,,,0.00,,2013-03-01 22:21:00,
2013-03-01 15:31:00,42.0,25.0,30.11,WSW,250,7.0,12.0,51,0.00,,,0.00,,2013-03-01 22:31:00,
2013-03-01 15:41:00,42.0,25.0,30.11,WSW,250,7.0,12.0,51,0.00,,,0.00,,2013-03-01 22:41:00,
2013-03-01 15:51:00,42.0,25.0,30.11,West,278,10.0,18.0,51,0.00,,,0.00,,2013-03-01 22:51:00,
2013-03-01 16:01:00,41.0,25.0,30.11,WSW,254,10.0,18.0,53,0.00,,,0.00,,2013-03-01 23:01:00,
2013-03-01 16:11:00,41.0,25.0,30.11,WSW,254,10.0,18.0,53,0.00,,,0.00,,2013-03-01 23:11:00,
2013-03-01 16:21:00,41.0,25.0,30.16,WSW,245,10.0,16.0,53,0.00,,,0.00,,2013-03-01 23:21:00,
2013-03-01 16:31:00,41.0,25.0,30.31,WSW,237,10.0,14.0,53,0.00,,,0.00,,2013-03-01 23:31:00,
2013-03-01 16:41:00,41.0,25.0,30.31,WSW,237,10.0,14.0,53,0.00,,,0.00,,2013-03-01 23:41:00,
2013-03-01 16:52:00,42.0,25.0,30.31,WSW,257,5.0,10.0,51,0.00,,,0.00,,2013-03-01 23:52:00,
2013-03-01 17:01:00,42.0,26.0,30.31,WSW,256,3.0,8.0,52,0.00,,,0.00,,2013-03-02 00:01:00,
2013-03-01 17:11:00,42.0,26.0,30.31,WSW,256,3.0,8.0,52,0.00,,,0.00,,2013-03-02 00:11:00,
2013-03-01 17:21:00,42.0,25.0,30.26,West,274,3.0,8.0,50,0.00,,,0.00,,2013-03-02 00:21:00,
2013-03-01 17:31:00,42.0,25.0,30.12,West,281,3.0,10.0,50,0.00,,,0.00,,2013-03-02 00:31:00,
2013-03-01 17:41:00,41.0,24.0,30.12,WSW,254,5.0,7.0,51,0.00,,,0.00,,2013-03-02 00:41:00,
2013-03-01 17:52:00,41.0,24.0,30.12,WSW,254,5.0,7.0,51,0.00,,,0.00,,2013-03-02 00:52:00,
2013-03-01 18:01:00,39.0,24.0,30.13,WSW,248,3.0,6.0,54,0.00,,,0.00,,2013-03-02 01:01:00,
2013-03-01 18:11:00,39.0,24.0,30.13,WSW,248,3.0,6.0,54,0.00,,,0.00,,2013-03-02 01:11:00,
2013-03-01 18:21:00,39.0,25.0,30.13,NW,319,2.0,6.0,57,0.00,,,0.00,,2013-03-02 01:21:00,
2013-03-01 18:31:00,37.0,24.0,30.15,NW,309,1.0,3.0,60,0.00,,,0.00,,2013-03-02 01:31:00,
2013-03-01 18:41:00,37.0,24.0,30.15,NW,309,1.0,3.0,60,0.00,,,0.00,,2013-03-02 01:41:00,
2013-03-01 18:52:00,37.0,25.0,30.15,NW,313,2.0,3.0,62,0.00,,,0.00,,2013-03-02 01:52:00,
2013-03-01 19:01:00,36.0,25.0,30.17,NW,309,1.0,2.0,63,0.00,,,0.00,,2013-03-02 02:01:00,
2013-03-01 19:11:00,36.0,25.0,30.17,NW,309,1.0,2.0,63,0.00,,,0.00,,2013-03-02 02:11:00,
2013-03-01 19:21:00,35.0,24.0,30.18,NW,309,0.0,0.0,64,0.00,,,0.00,,2013-03-02 02:21:00,
2013-03-01 19:31:00,34.0,24.0,30.20,NW,309,0.0,1.0,66,0.00,,,0.00,,2013-03-02 02:31:00,
2013-03-01 19:41:00,34.0,24.0,30.20,NW,309,0.0,1.0,66,0.00,,,0.00,,2013-03-02 02:41:00,
2013-03-01 19:52:00,33.0,23.0,30.20,NW,309,0.0,0.0,67,0.00,,,0.00,,2013-03-02 02:52:00,
2013-03-01 20:01:00,32.0,23.0,30.22,NW,309,0.0,2.0,68,0.00,,,0.00,,2013-03-02 03:01:00,
2013-03-01 20:11:00,32.0,23.0,30.22,NW,309,0.0,2.0,68,0.00,,,0.00,,2013-03-02 03:11:00,
2013-03-01 20:21:00,31.0,23.0,30.22,NW,309,0.0,3.0,71,0.00,,,0.00,,2013-03-02 03:21:00,
2013-03-01 20:31:00,30.0,22.0,30.22,NW,309,0.0,1.0,72,0.00,,,0.00,,2013-03-02 03:31:00,
2013-03-01 20:41:00,30.0,22.0,30.22,NW,309,0.0,1.0,72,0.00,,,0.00,,2013-03-02 03:41:00,
2013-03-01 20:52:00,30.0,23.0,30.23,NW,309,0.0,2.0,74,0.00,,,0.00,,2013-03-02 03:52:00,
2013-03-01 21:01:00,30.0,23.0,30.22,NW,312,2.0,5.0,75,0.00,,,0.00,,2013-03-02 04:01:00,
2013-03-01 21:11:00,29.0,22.0,30.22,West,280,1.0,3.0,76,0.00,,,0.00,,2013-03-02 04:11:00,
2013-03-01 21:21:00,29.0,22.0,30.22,West,280,1.0,3.0,76,0.00,,,0.00,,2013-03-02 04:21:00,
2013-03-01 21:31:00,29.0,23.0,30.21,West,280,1.0,2.0,77,0.00,,,0.00,,2013-03-02 04:31:00,
2013-03-01 21:41:00,29.0,23.0,30.21,West,280,1.0,2.0,77,0.00,,,0.00,,2013-03-02 04:41:00,
2013-03-01 21:52:00,29.0,23.0,30.21,West,280,0.0,1.0,77,0.00,,,0.00,,2013-03-02 04:52:00,
2013-03-01 22:01:00,28.0,22.0,30.21,West,280,0.0,1.0,77,0.00,,,0.00,,2013-03-02 05:01:00,
2013-03-01 22:12:00,28.0,22.0,30.21,West,280,0.0,1.0,77,0.00,,,0.00,,2013-03-02 05:12:00,
2013-03-01 22:22:00,28.0,22.0,30.21,West,280,0.0,0.0,78,0.00,,,0.00,,2013-03-02 05:22:00,
2013-03-01 22:31:00,28.0,22.0,30.21,West,280,0.0,0.0,78,0.00,,,0.00,,2013-03-02 05:31:00,
2013-03-01 22:41:00,28.0,22.0,30.21,West,280,0.0,0.0,78,0.00,,,0.00,,2013-03-02 05:41:00,
2013-03-01 22:52:00,27.0,21.0,30.20,West,280,0.0,0.0,78,0.00,,,0.00,,2013-03-02 05:52:00,
2013-03-01 23:01:00,27.0,22.0,30.21,West,280,0.0,0.0,80,0.00,,,0.00,,2013-03-02 06:01:00,
2013-03-01 23:11:00,27.0,22.0,30.21,West,280,0.0,0.0,80,0.00,,,0.00,,2013-03-02 06:11:00,
2013-03-01 23:21:00,26.0,21.0,30.22,West,280,0.0,0.0,80,0.00,,,0.00,,2013-03-02 06:21:00,
2013-03-01 23:31:00,26.0,21.0,30.21,West,280,0.0,0.0,80,0.00,,,0.00,,2013-03-02 06:31:00,
2013-03-01 23:41:00,26.0,21.0,30.21,West,280,0.0,0.0,80,0.00,,,0.00,,2013-03-02 06:41:00,
2013-03-01 23:52:00,25.0,20.0,30.22,West,278,0.0,0.0,80,0.00,,,0.00,,2013-03-02 06:52:00,